• In Germany
  • List of Countries
  • For 7 days
  • Water Temperature
  • Satellite Maps
  • Weather Map
  • Weather Widgets
  • user-avatar
    Login

    Hourly Weather Gjirokaster

    Today, 26 July, Wednesday

    Time Temperature Precipitation Wind Pressure Humidity
    00:00 +15°C° 0 mm 2 mps 647 mmHg 71%
    01:00 +15°C° 0 mm 2 mps 647 mmHg 72%
    02:00 +14°C° 0 mm 2 mps 646 mmHg 72%
    03:00 +14°C° 0 mm 2 mps 646 mmHg 73%
    04:00 +14°C° 0 mm 2 mps 646 mmHg 73%
    05:00 +15°C° 0 mm 2 mps 646 mmHg 69%
    06:00 +17°C° 0 mm 2 mps 647 mmHg 65%
    07:00 +18°C° 0 mm 2 mps 647 mmHg 61%
    08:00 +19°C° 0.1 mm 2 mps 647 mmHg 57%
    09:00 +20°C° 0.1 mm 2 mps 648 mmHg 54%
    10:00 +21°C° 0.1 mm 3 mps 648 mmHg 50%
    11:00 +22°C° 0.1 mm 3 mps 648 mmHg 50%
    12:00 +22°C° 0.1 mm 3 mps 648 mmHg 50%
    13:00 +22°C° 0.1 mm 3 mps 648 mmHg 50%
    14:00 +22°C° 0.1 mm 3 mps 648 mmHg 52%
    15:00 +21°C° 0.1 mm 3 mps 648 mmHg 54%
    16:00 +21°C° 0.1 mm 3 mps 647 mmHg 55%
    17:00 +19°C° 0.1 mm 3 mps 647 mmHg 62%
    18:00 +18°C° 0.1 mm 2 mps 647 mmHg 69%
    19:00 +16°C° 0.1 mm 2 mps 647 mmHg 76%
    20:00 +15°C° 0.1 mm 1 mps 647 mmHg 79%
    21:00 +15°C° 0.1 mm 1 mps 647 mmHg 81%
    22:00 +14°C° 0.1 mm 1 mps 647 mmHg 84%
    23:00 +13°C° 0.1 mm 1 mps 647 mmHg 84%

    Tomorrow, 27 July, Thursday

    Time Temperature Precipitation Wind Pressure Humidity
    00:00 +13°C° 0.1 mm 1 mps 647 mmHg 85%
    01:00 +13°C° 0.1 mm 1 mps 647 mmHg 85%
    02:00 +12°C° 0.1 mm 1 mps 647 mmHg 85%
    03:00 +12°C° 0.1 mm 1 mps 647 mmHg 85%
    04:00 +12°C° 0.1 mm 1 mps 647 mmHg 85%
    05:00 +13°C° 0 mm 1 mps 647 mmHg 80%
    06:00 +14°C° 0 mm 2 mps 648 mmHg 74%
    07:00 +16°C° 0 mm 2 mps 648 mmHg 69%
    08:00 +17°C° 0 mm 3 mps 649 mmHg 61%
    09:00 +19°C° 0 mm 3 mps 649 mmHg 53%
    10:00 +20°C° 0 mm 4 mps 650 mmHg 45%
    11:00 +21°C° 0 mm 5 mps 650 mmHg 44%
    12:00 +22°C° 0 mm 5 mps 650 mmHg 42%
    13:00 +22°C° 0 mm 6 mps 650 mmHg 41%
    14:00 +22°C° 0.1 mm 6 mps 650 mmHg 44%
    15:00 +21°C° 0.1 mm 6 mps 650 mmHg 47%
    16:00 +21°C° 0.1 mm 6 mps 649 mmHg 51%
    17:00 +19°C° 0.1 mm 5 mps 649 mmHg 57%
    18:00 +17°C° 0.1 mm 5 mps 649 mmHg 63%
    19:00 +15°C° 0.1 mm 4 mps 649 mmHg 69%
    20:00 +14°C° 0 mm 3 mps 650 mmHg 71%
    21:00 +13°C° 0 mm 3 mps 650 mmHg 74%
    22:00 +12°C° 0 mm 3 mps 650 mmHg 77%
    23:00 +12°C° 0 mm 3 mps 650 mmHg 76%

    Day after tomorrow, 28 July, Friday

    Time Temperature Precipitation Wind Pressure Humidity
    00:00 +13°C° 0 mm 2 mps 650 mmHg 76%
    01:00 +13°C° 0 mm 2 mps 650 mmHg 76%
    02:00 +12°C° 0 mm 2 mps 650 mmHg 75%
    03:00 +12°C° 0 mm 2 mps 650 mmHg 74%
    04:00 +12°C° 0 mm 2 mps 650 mmHg 73%
    05:00 +14°C° 0 mm 2 mps 651 mmHg 68%
    06:00 +16°C° 0 mm 2 mps 652 mmHg 63%
    07:00 +17°C° 0 mm 2 mps 652 mmHg 58%
    08:00 +19°C° 0 mm 2 mps 653 mmHg 51%
    09:00 +21°C° 0 mm 2 mps 653 mmHg 44%
    10:00 +24°C° 0 mm 3 mps 654 mmHg 37%
    11:00 +24°C° 0 mm 3 mps 654 mmHg 35%
    12:00 +25°C° 0 mm 3 mps 654 mmHg 34%
    13:00 +26°C° 0 mm 4 mps 654 mmHg 32%
    14:00 +26°C° 0 mm 4 mps 654 mmHg 34%
    15:00 +26°C° 0 mm 4 mps 654 mmHg 35%
    16:00 +26°C° 0 mm 4 mps 654 mmHg 36%
    17:00 +22°C° 0 mm 4 mps 654 mmHg 42%
    18:00 +20°C° 0 mm 3 mps 654 mmHg 48%
    19:00 +18°C° 0 mm 2 mps 653 mmHg 54%
    20:00 +17°C° 0 mm 2 mps 654 mmHg 55%
    21:00 +17°C° 0 mm 2 mps 654 mmHg 56%
    22:00 +16°C° 0 mm 2 mps 654 mmHg 57%
    23:00 +16°C° 0 mm 2 mps 654 mmHg 56%

    29 July, Saturday

    Time Temperature Precipitation Wind Pressure Humidity
    00:00 +15°C° 0 mm 2 mps 654 mmHg 56%
    01:00 +15°C° 0 mm 2 mps 654 mmHg 56%
    02:00 +15°C° 0 mm 2 mps 654 mmHg 56%
    03:00 +15°C° 0 mm 2 mps 654 mmHg 56%
    04:00 +15°C° 0 mm 2 mps 654 mmHg 57%
    05:00 +16°C° 0 mm 1 mps 655 mmHg 54%
    06:00 +19°C° 0 mm 1 mps 655 mmHg 51%
    07:00 +21°C° 0 mm 1 mps 656 mmHg 48%
    08:00 +23°C° 0 mm 1 mps 656 mmHg 43%
    09:00 +25°C° 0 mm 1 mps 657 mmHg 39%
    10:00 +27°C° 0 mm 1 mps 658 mmHg 35%
    11:00 +28°C° 0 mm 2 mps 658 mmHg 34%
    12:00 +28°C° 0 mm 2 mps 658 mmHg 33%
    13:00 +29°C° 0 mm 2 mps 657 mmHg 31%
    14:00 +28°C° 0 mm 2 mps 657 mmHg 33%
    15:00 +28°C° 0 mm 2 mps 657 mmHg 35%
    16:00 +27°C° 0 mm 2 mps 657 mmHg 37%
    17:00 +25°C° 0 mm 2 mps 656 mmHg 41%
    18:00 +23°C° 0 mm 2 mps 656 mmHg 46%
    19:00 +21°C° 0 mm 1 mps 656 mmHg 50%
    20:00 +21°C° 0 mm 1 mps 656 mmHg 51%
    21:00 +20°C° 0 mm 1 mps 656 mmHg 52%
    22:00 +19°C° 0 mm 1 mps 656 mmHg 54%
    23:00 +19°C° 0 mm 1 mps 656 mmHg 55%

    30 July, Sunday

    Time Temperature Precipitation Wind Pressure Humidity
    00:00 +19°C° 0 mm 1 mps 655 mmHg 56%
    01:00 +19°C° 0 mm 1 mps 655 mmHg 57%
    02:00 +18°C° 0 mm 1 mps 655 mmHg 58%
    03:00 +18°C° 0 mm 1 mps 655 mmHg 59%
    04:00 +18°C° 0 mm 1 mps 655 mmHg 60%
    05:00 +19°C° 0 mm 1 mps 655 mmHg 56%
    06:00 +21°C° 0 mm 1 mps 656 mmHg 53%
    07:00 +23°C° 0 mm 1 mps 656 mmHg 49%
    08:00 +24°C° 0 mm 1 mps 656 mmHg 44%
    09:00 +26°C° 0 mm 1 mps 657 mmHg 38%
    10:00 +28°C° 0 mm 1 mps 657 mmHg 33%
    11:00 +29°C° 0 mm 2 mps 657 mmHg 32%
    12:00 +29°C° 0 mm 2 mps 657 mmHg 31%
    13:00 +30°C° 0 mm 3 mps 657 mmHg 30%
    14:00 +29°C° 0 mm 3 mps 657 mmHg 32%
    15:00 +29°C° 0 mm 3 mps 656 mmHg 34%
    16:00 +28°C° 0 mm 3 mps 656 mmHg 35%
    17:00 +26°C° 0 mm 3 mps 656 mmHg 40%
    18:00 +24°C° 0 mm 2 mps 655 mmHg 44%
    19:00 +21°C° 0 mm 2 mps 655 mmHg 49%
    20:00 +20°C° 0 mm 2 mps 655 mmHg 50%
    21:00 +20°C° 0 mm 2 mps 655 mmHg 51%
    22:00 +19°C° 0 mm 2 mps 655 mmHg 52%
    23:00 +19°C° 0 mm 2 mps 654 mmHg 53%

    31 July, Monday

    Time Temperature Precipitation Wind Pressure Humidity
    00:00 +18°C° 0 mm 2 mps 654 mmHg 54%
    01:00 +18°C° 0 mm 2 mps 654 mmHg 55%
    02:00 +18°C° 0 mm 2 mps 654 mmHg 55%
    03:00 +17°C° 0 mm 2 mps 654 mmHg 56%
    04:00 +17°C° 0 mm 2 mps 654 mmHg 57%
    05:00 +19°C° 0 mm 2 mps 654 mmHg 54%
    06:00 +20°C° 0 mm 2 mps 655 mmHg 51%
    07:00 +23°C° 0 mm 2 mps 655 mmHg 48%
    08:00 +25°C° 0 mm 2 mps 655 mmHg 43%
    09:00 +27°C° 0 mm 2 mps 656 mmHg 39%
    10:00 +29°C° 0 mm 2 mps 656 mmHg 34%
    11:00 +29°C° 0 mm 2 mps 656 mmHg 33%
    12:00 +30°C° 0 mm 3 mps 656 mmHg 32%
    13:00 +30°C° 0 mm 3 mps 656 mmHg 31%
    14:00 +30°C° 0 mm 3 mps 655 mmHg 31%
    15:00 +30°C° 0 mm 3 mps 655 mmHg 32%
    16:00 +29°C° 0 mm 3 mps 655 mmHg 33%
    17:00 +27°C° 0 mm 3 mps 655 mmHg 39%
    18:00 +25°C° 0 mm 2 mps 655 mmHg 46%
    19:00 +23°C° 0 mm 2 mps 654 mmHg 52%
    20:00 +21°C° 0 mm 2 mps 654 mmHg 53%
    21:00 +20°C° 0 mm 2 mps 654 mmHg 55%
    22:00 +19°C° 0 mm 2 mps 655 mmHg 57%
    23:00 +19°C° 0 mm 2 mps 654 mmHg 57%
    Show more